Погода в Куликовке

Украина / Черниговская область     51°22′28″N   31°38′36″E
темп.,
°C
ветер,
м/с
пор.,
м/с
влажн.,
%
обл.,
%
осадки,
мм/ч
давл.,
гПа
погр.,
м
31 июля, сб
сб3100:00+20юз11630 0.0 101011
03:00+18ююз33680 0.0 101028
06:00+18юз35775 0.0 101087
09:00+25з45510 0.0 1010451
12:00+29з56405 0.0 10101951
15:00+31з453425 0.0 10102654
18:00+30юз44345 0.0 10092362
21:00+24ю334614 0.0 101031
1 августа, вс
вс100:00+22ююз47556 0.0 101098
03:00+21ююз226598 0.0 101015
06:00+20ю35682 0.0 101086
09:00+26ю355114 0.0 1010439
12:00+32ююз58340 0.0 10092243
15:00+31юз474127 0.0 10081820
18:00+21с3593100 5.2 1009109
21:00+20юв249495 7.9 1009102
2 августа, пн
пн200:00+20ююз34932 0.0 100963
03:00+19ююз349298 0.0 100865
06:00+19ююз369172 0.0 1009114
09:00+25ю577089 0.0 1007362
12:00+31юз810427 0.0 10061535
15:00+33зюз81037100 0.3 10042625
18:00+26зюз41067100 8.6 1004565
21:00+18зюз49805 10.1 1007138
3 августа, вт
вт300:00+17зсз498827 0.0 1009277
03:00+15зсз4995100 0.0 1010297
06:00+14зсз49945 0.0 1012234
09:00+19зсз46715 0.0 1013525
12:00+24зсз45505 0.0 10131580
15:00+25сз664336 0.0 10122030
18:00+23зюз455294 0.0 10131199
21:00+21зсз2456100 0.0 101475
4 августа, ср
ср400:00+19сз375499 0.0 1015192
03:00+18зсз235643 0.0 101683
06:00+15зсз116799 0.0 101612
09:00+19з24596 0.0 1018218
12:00+24зюз3444100 0.0 10171751
15:00+26з343895 0.0 10162388
18:00+24юз115080 0.0 101618
21:00+19юв226145 0.0 101719